| time (UTC) | temp C | wind direction | speed KPH | gust KPH | rain 1hr cm | rain 24hr cm | rain mn cm | humidity % | barometer mb |
| 20260505223031 | 12 | 0 | 1.6 | 4.8 | 0.00 | 0.94 | 0.00 | 91 | 1012.5 |
| 20260505221533 | 12 | 43 | 1.6 | 6.4 | 0.03 | 0.94 | 0.00 | 91 | 1012.5 |
| 20260505220031 | 12 | 54 | 3.2 | 6.4 | 0.03 | 0.94 | 0.00 | 91 | 1012.7 |
| 20260505214537 | 12 | 27 | 3.2 | 4.8 | 0.00 | 0.91 | 0.91 | 90 | 1012.8 |
| 20260505213033 | 12 | 64 | 0.0 | 6.4 | 0.00 | 0.91 | 0.91 | 90 | 1013.0 |
| 20260505211532 | 12 | 56 | 3.2 | 4.8 | 0.00 | 0.89 | 0.89 | 89 | 1013.1 |
| 20260505210031 | 12 | 54 | 1.6 | 4.8 | 0.00 | 0.89 | 0.89 | 89 | 1013.2 |
| 20260505204530 | 12 | 41 | 3.2 | 6.4 | 0.00 | 0.89 | 0.89 | 89 | 1013.1 |
| 20260505203033 | 12 | 58 | 1.6 | 4.8 | 0.00 | 0.89 | 0.89 | 88 | 1013.2 |
| 20260505201534 | 12 | 65 | 4.8 | 8.0 | 0.00 | 0.89 | 0.89 | 88 | 1013.1 |
| 20260505200036 | 12 | 60 | 4.8 | 8.0 | 0.00 | 0.89 | 0.89 | 87 | 1013.1 |
| 20260505194532 | 12 | 52 | 1.6 | 6.4 | 0.00 | 0.89 | 0.89 | 87 | 1013.2 |
| 20260505193031 | 12 | 56 | 3.2 | 9.7 | 0.00 | 0.89 | 0.89 | 86 | 1013.0 |
| 20260505191535 | 13 | 56 | 3.2 | 9.7 | 0.00 | 0.89 | 0.89 | 85 | 1012.8 |
| 20260505190045 | 13 | 60 | 9.7 | 12.9 | 0.00 | 0.89 | 0.89 | 84 | 1012.6 |
| 20260505184532 | 13 | 58 | 3.2 | 6.4 | 0.00 | 0.94 | 0.89 | 83 | 1012.5 |
| 20260505183042 | 13 | 69 | 3.2 | 4.8 | 0.00 | 0.94 | 0.89 | 81 | 1012.5 |
| 20260505181532 | 13 | 0 | 0.0 | 3.2 | 0.00 | 0.94 | 0.89 | 80 | 1012.5 |
| 20260505180032 | 14 | 53 | 0.0 | 4.8 | 0.00 | 0.94 | 0.89 | 80 | 1012.5 |
| 20260505174534 | 14 | 60 | 1.6 | 3.2 | 0.00 | 1.17 | 0.89 | 79 | 1012.4 |
| 20260505173038 | 14 | 40 | 1.6 | 4.8 | 0.00 | 1.17 | 0.89 | 78 | 1012.6 |
| 20260505171534 | 14 | 145 | 1.6 | 4.8 | 0.00 | 1.17 | 0.89 | 77 | 1012.6 |
| 20260505170035 | 14 | 57 | 3.2 | 6.4 | 0.00 | 1.17 | 0.89 | 77 | 1012.5 |
| 20260505164530 | 15 | 71 | 1.6 | 3.2 | 0.00 | 1.17 | 0.89 | 77 | 1012.7 |
| 20260505163033 | 15 | 55 | 1.6 | 4.8 | 0.00 | 1.17 | 0.89 | 76 | 1012.8 |
| 20260505161533 | 15 | 200 | 3.2 | 4.8 | 0.00 | 1.17 | 0.89 | 75 | 1012.8 |
| 20260505153031 | 15 | 170 | 0.0 | 4.8 | 0.00 | 1.17 | 0.89 | 75 | 1012.8 |
| 20260505151529 | 15 | 152 | 3.2 | 4.8 | 0.00 | 1.17 | 0.89 | 76 | 1012.9 |
| 20260505124539 | 13 | 59 | 1.6 | 6.4 | 0.00 | 1.17 | 0.89 | 82 | 1013.8 |
| 20260505123033 | 13 | 63 | 3.2 | 6.4 | 0.00 | 1.17 | 0.89 | 81 | 1013.9 |
| 20260505121534 | 13 | 0 | 0.0 | 1.6 | 0.00 | 1.17 | 0.89 | 83 | 1013.9 |
| 20260505120038 | 12 | 281 | 1.6 | 3.2 | 0.00 | 1.17 | 0.89 | 83 | 1014.2 |
| 20260505114531 | 13 | 0 | 0.0 | 1.6 | 0.00 | 1.17 | 0.89 | 84 | 1014.2 |
| 20260505113033 | 12 | 314 | 0.0 | 4.8 | 0.00 | 1.17 | 0.89 | 84 | 1014.2 |
| 20260505111531 | 12 | 270 | 1.6 | 3.2 | 0.00 | 1.17 | 0.89 | 83 | 1014.3 |
| 20260505101539 | 11 | 217 | 3.2 | 4.8 | 0.00 | 1.17 | 0.89 | 87 | 1014.5 |
| 20260505100035 | 11 | 0 | 1.6 | 4.8 | 0.00 | 1.17 | 0.89 | 89 | 1014.4 |
| 20260505094534 | 11 | 272 | 3.2 | 4.8 | 0.00 | 1.17 | 0.89 | 89 | 1014.4 |
| 20260505093031 | 11 | 219 | 1.6 | 6.4 | 0.00 | 1.17 | 0.89 | 89 | 1014.4 |
| 20260505091534 | 11 | 252 | 3.2 | 6.4 | 0.00 | 1.17 | 0.89 | 89 | 1014.5 |
| 20260505090029 | 11 | 287 | 1.6 | 6.4 | 0.00 | 1.17 | 0.89 | 89 | 1014.3 |
| 20260505084542 | 11 | 233 | 3.2 | 6.4 | 0.00 | 1.17 | 0.89 | 89 | 1014.3 |
| 20260505083033 | 11 | 235 | 3.2 | 6.4 | 0.00 | 1.17 | 0.89 | 89 | 1014.2 |
| 20260505081534 | 11 | 243 | 3.2 | 4.8 | 0.00 | 1.17 | 0.89 | 89 | 1014.0 |
| 20260505080030 | 11 | 223 | 3.2 | 6.4 | 0.00 | 1.17 | 0.89 | 89 | 1014.0 |
| 20260505074534 | 11 | 162 | 1.6 | 4.8 | 0.05 | 1.17 | 0.89 | 88 | 1013.9 |
| 20260505073040 | 11 | 204 | 1.6 | 4.8 | 0.05 | 1.17 | 0.89 | 88 | 1013.9 |
| 20260505071533 | 11 | 220 | 0.0 | 3.2 | 0.03 | 1.14 | 0.86 | 88 | 1013.8 |
| 20260505070040 | 11 | 225 | 0.0 | 6.4 | 0.03 | 1.14 | 0.86 | 87 | 1014.0 |
| 20260505064534 | 11 | 0 | 0.0 | 3.2 | 0.00 | 1.12 | 0.84 | 85 | 1013.8 |
| 20260505063030 | 11 | 333 | 1.6 | 6.4 | 0.00 | 1.12 | 0.84 | 86 | 1013.6 |
| 20260505061539 | 11 | 319 | 3.2 | 11.3 | 0.03 | 1.12 | 0.84 | 86 | 1013.7 |
| 20260505060034 | 10 | 337 | 8.0 | 14.5 | 0.10 | 1.12 | 0.84 | 87 | 1013.5 |
| 20260505054537 | 10 | 316 | 6.4 | 9.7 | 0.23 | 1.12 | 0.84 | 89 | 1013.6 |
| 20260505053033 | 10 | 13 | 4.8 | 9.7 | 0.33 | 1.09 | 0.81 | 90 | 1013.6 |
| 20260505051533 | 10 | 0 | 0.0 | 0.0 | 0.43 | 1.07 | 0.79 | 90 | 1013.7 |
| 20260505041548 | 10 | 240 | 0.0 | 3.2 | 0.28 | 0.61 | 0.33 | 89 | 1014.2 |
| 20260505040040 | 10 | 0 | 0.0 | 0.0 | 0.18 | 0.51 | 0.23 | 89 | 1014.3 |
| 20260505034533 | 10 | 0 | 0.0 | 4.8 | 0.08 | 0.38 | 0.10 | 88 | 1014.1 |
| 20260505033034 | 11 | 238 | 0.0 | 4.8 | 0.03 | 0.36 | 0.08 | 87 | 1014.0 |
| 20260505031541 | 11 | 242 | 0.0 | 3.2 | 0.00 | 0.33 | 0.05 | 87 | 1014.0 |
| 20260505030032 | 11 | 209 | 1.6 | 8.0 | 0.00 | 0.30 | 0.03 | 85 | 1014.3 |
| 20260505024538 | 11 | 240 | 1.6 | 6.4 | 0.00 | 0.30 | 0.03 | 84 | 1014.2 |
| 20260505023031 | 11 | 146 | 4.8 | 9.7 | 0.00 | 0.30 | 0.03 | 83 | 1014.2 |
| 20260505021535 | 11 | 139 | 1.6 | 6.4 | 0.00 | 0.30 | 0.03 | 80 | 1014.2 |
| 20260505020032 | 11 | 0 | 0.0 | 4.8 | 0.00 | 0.30 | 0.03 | 78 | 1014.2 |
| 20260505014541 | 11 | 318 | 3.2 | 8.0 | 0.00 | 0.30 | 0.03 | 79 | 1014.2 |
| 20260505013038 | 11 | 314 | 3.2 | 9.7 | 0.00 | 0.30 | 0.03 | 81 | 1014.2 |
| 20260505011530 | 11 | 304 | 3.2 | 8.0 | 0.03 | 0.30 | 0.03 | 82 | 1014.6 |
| 20260505010033 | 11 | 333 | 3.2 | 4.8 | 0.03 | 0.30 | 0.03 | 86 | 1015.2 |
| 20260505004538 | 11 | 0 | 0.0 | 3.2 | 0.03 | 0.30 | 0.03 | 85 | 1015.7 |
| 20260505003032 | 11 | 352 | 1.6 | 4.8 | 0.00 | 0.28 | 0.00 | 84 | 1015.9 |
| 20260505001533 | 11 | 210 | 0.0 | 4.8 | 0.00 | 0.28 | 0.00 | 83 | 1016.1 |
| 20260505000038 | 12 | 0 | 0.0 | 1.6 | 0.00 | 0.28 | 0.00 | 82 | 1016.1 |
| 20260504234536 | 12 | 0 | 0.0 | 1.6 | 0.00 | 0.28 | 0.00 | 81 | 1016.4 |
| 20260504233041 | 12 | 219 | 0.0 | 3.2 | 0.00 | 0.28 | 0.00 | 80 | 1016.4 |
| 20260504231534 | 12 | 162 | 1.6 | 6.4 | 0.00 | 0.28 | 0.00 | 79 | 1016.6 |
| 20260504230035 | 12 | 52 | 3.2 | 11.3 | 0.00 | 0.28 | 0.00 | 80 | 1016.8 |
| 20260504224537 | 12 | 214 | 1.6 | 8.0 | 0.00 | 0.28 | 0.00 | 79 | 1017.0 |